Location: *
(33.8649°S, 62.1526°E)
Time: 16:53:32
(UTC+00:00)

X-37B - Visible Passes

Search period start: 30 September 2022 00:00
Search period end: 10 October 2022 00:00
Orbit: 329 x 342 km, 45.0° (Epoch: 29 September)

Date Brightness Start Highest point End Pass type
(mag) Time Alt. Az. Time Alt. Az. Time Alt. Az.
30 Sep 1.5 14:40:19 10° SW 14:42:55 31° SSE 14:44:28 18° ESE visible
01 Oct 0.2 15:00:34 10° WSW 15:03:27 85° NNW 15:04:17 42° NE visible
02 Oct 2.2 15:21:24 10° W 15:23:46 23° NW 15:24:11 22° NNW visible
04 Oct 2.4 14:26:50 10° W 14:29:12 23° NW 14:31:33 10° NNE visible
